QPF
0.00 0.00 0.00 0.00 0.00 0.00 0.00 0.00 0.00 0.00 0.00 0.00 0.00 0.00 0.01 0.01 0.02 0.02 0.02 0.03 0.04 0.04 0.04 0.02 0.01 0.00 0.00 0.00 0.00 0.00 0.00 0.00 0.00 0.00 0.00 0.00 0.00 0.00 0.00 0.00 0.00 0.00 0.00
0.00 0.00 0.00 0.00 0.00 0.00 0.00 0.00 0.00 0.00 0.00 0.00 0.00 0.00 0.00 0.01 0.01 0.02 0.02 0.04 0.05 0.05 0.04 0.02 0.01 0.00 0.00 0.00 0.00 0.00 0.00 0.00 0.00 0.00 0.00 0.00 0.00 0.00 0.00 0.00 0.00 0.00 0.00
0.00 0.00 0.00 0.00 0.00 0.00 0.00 0.00 0.00 0.00 0.00 0.00 0.00 0.00 0.00 0.01 0.01 0.02 0.03 0.05 0.06 0.06 0.06 0.04 0.02 0.01 0.00 0.00 0.00 0.00 0.00 0.00 0.00 0.00 0.00 0.00 0.00 0.00 0.00 0.00 0.00 0.00 0.00
0.00 0.00 0.00 0.00 0.00 0.00 0.00 0.00 0.00 0.00 0.00 0.00 0.00 0.00 0.00 0.00 0.01 0.02 0.04 0.05 0.05 0.05 0.05 0.05 0.03 0.02 0.01 0.00 0.00 0.00 0.00 0.00 0.00 0.00 0.00 0.00 0.00 0.00 0.00 0.00 0.00 0.00 0.00
0.00 0.00 0.00 0.00 0.00 0.00 0.00 0.00 0.00 0.00 0.00 0.00 0.00 0.00 0.00 0.00 0.01 0.02 0.03 0.04 0.04 0.03 0.03 0.03 0.02 0.01 0.01 0.01 0.01 0.00 0.00 0.00 0.00 0.00 0.00 0.00 0.00 0.00 0.00 0.00 0.00 0.00 0.00
0.00 0.00 0.00 0.00 0.00 0.00 0.00 0.00 0.00 0.00 0.00 0.00 0.00 0.00 0.00 0.00 0.01 0.02 0.03 0.04 0.04 0.04 0.03 0.02 0.01 0.01 0.00 0.00 0.00 0.00 0.00 0.00 0.00 0.00 0.00 0.00 0.00 0.00 0.00 0.00 0.00 0.00 0.00
0.00 0.00 0.00 0.00 0.00 0.00 0.00 0.00 0.00 0.00 0.00 0.01 0.00 0.00 0.00 0.00 0.01 0.03 0.04 0.04 0.04 0.04 0.03 0.02 0.01 0.01 0.00 0.00 0.00 0.00 0.00 0.00 0.00 0.00 0.00 0.00 0.00 0.00 0.00 0.00 0.00 0.00 0.00
0.00 0.00 0.00 0.00 0.00 0.00 0.00 0.00 0.00 0.00 0.01 0.01 0.00 0.00 0.00 0.00 0.01 0.02 0.03 0.04 0.05 0.04 0.03 0.02 0.01 0.00 0.00 0.00 0.00 0.00 0.00 0.00 0.00 0.00 0.00 0.00 0.00 0.00 0.00 0.00 0.00 0.00 0.00
0.00 0.00 0.00 0.00 0.00 0.00 0.00 0.00 0.00 0.00 0.01 0.01 0.00 0.00 0.00 0.00 0.01 0.01 0.02 0.02 0.03 0.02 0.02 0.01 0.01 0.00 0.00 0.00 0.00 0.00 0.00 0.00 0.00 0.00 0.00 0.00 0.00 0.00 0.00 0.00 0.00 0.00 0.00
0.00 0.00 0.00 0.00 0.00 0.00 0.00 0.00 0.00 0.00 0.01 0.01 0.00 0.00 0.00 0.00 0.01 0.01 0.01 0.01 0.01 0.01 0.01 0.00 0.00 0.00 0.00 0.00 0.00 0.00 0.00 0.00 0.00 0.00 0.00 0.00 0.00 0.00 0.00 0.00 0.00 0.00 0.00
0.00 0.00 0.00 0.00 0.00 0.00 0.00 0.00 0.01 0.01 0.01 0.00 0.00 0.00 0.00 0.00 0.01 0.01 0.01 0.02 0.01 0.01 0.00 0.00 0.00 0.00 0.00 0.00 0.00 0.00 0.00 0.00 0.00 0.00 0.00 0.00 0.00 0.00 0.00 0.00 0.00 0.00 0.00
0.00 0.00 0.00 0.00 0.01 0.01 0.01 0.01 0.01 0.01 0.01 0.00 0.00 0.00 0.00 0.00 0.01 0.01 0.01 0.01 0.01 0.00 0.00 0.00 0.00 0.00 0.00 0.00 0.00 0.00 0.00 0.00 0.00 0.00 0.00 0.00 0.00 0.00 0.00 0.00 0.00 0.00 0.00
0.00 0.00 0.01 0.01 0.01 0.01 0.02 0.02 0.02 0.01 0.01 0.01 0.01 0.01 0.01 0.01 0.01 0.00 0.01 0.01 0.01 0.00 0.00 0.00 0.00 0.00 0.00 0.00 0.00 0.00 0.00 0.00 0.00 0.00 0.00 0.00 0.00 0.00 0.00 0.00 0.00 0.00 0.00
0.02 0.02 0.01 0.01 0.02 0.02 0.02 0.02 0.01 0.01 0.01 0.01 0.01 0.01 0.01 0.01 0.00 0.01 0.01 0.01 0.00 0.00 0.00 0.00 0.00 0.00 0.00 0.00 0.00 0.00 0.00 0.00 0.00 0.00 0.00 0.00 0.00 0.00 0.00 0.00 0.00 0.00 0.00
0.02 0.02 0.02 0.02 0.02 0.01 0.01 0.01 0.01 0.01 0.01 0.01 0.01 0.01 0.01 0.00 0.00 0.01 0.00 0.00 0.00 0.00 0.00 0.00 0.00 0.00 0.00 0.00 0.00 0.00 0.00 0.00 0.00 0.00 0.00 0.00 0.00 0.00 0.00 0.00 0.00 0.00 0.00
0.02 0.02 0.02 0.02 0.01 0.01 0.01 0.01 0.01 0.01 0.01 0.01 0.01 0.01 0.01 0.01 0.00 0.00 0.00 0.00 0.00 0.00 0.00 0.00 0.00 0.00 0.00 0.00 0.00 0.00 0.00 0.00 0.00 0.00 0.00 0.00 0.00 0.00 0.00 0.00 0.00 0.00 0.01
0.02 0.01 0.01 0.01 0.01 0.01 0.01 0.01 0.01 0.01 0.01 0.01 0.01 0.01 0.01 0.00 0.00 0.00 0.00 0.00 0.00 0.00 0.00 0.00 0.00 0.00 0.00 0.00 0.00 0.00 0.00 0.00 0.00 0.00 0.00 0.00 0.00 0.00 0.00 0.00 0.00 0.00 0.01
0.02 0.01 0.01 0.01 0.01 0.01 0.01 0.01 0.01 0.01 0.01 0.01 0.01 0.01 0.00 0.00 0.00 0.00 0.00 0.00 0.00 0.00 0.00 0.00 0.00 0.00 0.00 0.00 0.00 0.00 0.00 0.00 0.00 0.00 0.00 0.00 0.00 0.00 0.00 0.00 0.01 0.01 0.01
0.03 0.02 0.02 0.02 0.02 0.02 0.03 0.02 0.02 0.02 0.02 0.01 0.01 0.01 0.00 0.00 0.00 0.00 0.00 0.00 0.00 0.00 0.00 0.00 0.00 0.00 0.00 0.00 0.00 0.00 0.00 0.00 0.00 0.00 0.00 0.00 0.00 0.00 0.00 0.01 0.01 0.01 0.00
0.05 0.05 0.05 0.05 0.05 0.05 0.06 0.05 0.04 0.03 0.03 0.03 0.03 0.02 0.01 0.01 0.01 0.01 0.01 0.01 0.01 0.00 0.00 0.00 0.00 0.00 0.00 0.00 0.00 0.00 0.00 0.00 0.00 0.00 0.00 0.00 0.00 0.00 0.01 0.01 0.01 0.01 0.00
0.04 0.04 0.06 0.07 0.07 0.08 0.08 0.07 0.06 0.05 0.04 0.03 0.02 0.02 0.01 0.01 0.01 0.01 0.00 0.00 0.00 0.00 0.00 0.00 0.00 0.00 0.00 0.00 0.00 0.00 0.00 0.00 0.00 0.00 0.00 0.00 0.00 0.01 0.01 0.01 0.01 0.00 0.00
0.04 0.04 0.05 0.05 0.05 0.06 0.06 0.06 0.05 0.03 0.02 0.02 0.01 0.01 0.01 0.01 0.00 0.00 0.00 0.00 0.00 0.00 0.00 0.00 0.00 0.00 0.00 0.00 0.00 0.00 0.00 0.00 0.00 0.00 0.00 0.00 0.00 0.01 0.01 0.00 0.00 0.00 0.00
0.04 0.04 0.03 0.03 0.03 0.03 0.04 0.03 0.03 0.02 0.01 0.01 0.01 0.01 0.00 0.00 0.00 0.00 0.00 0.00 0.00 0.00 0.00 0.00 0.00 0.00 0.00 0.00 0.00 0.00 0.00 0.00 0.00 0.00 0.00 0.00 0.00 0.00 0.00 0.00 0.00 0.00 0.00
0.02 0.02 0.01 0.01 0.01 0.01 0.01 0.01 0.01 0.01 0.00 0.00 0.00 0.00 0.00 0.00 0.00 0.00 0.00 0.00 0.00 0.00 0.00 0.00 0.00 0.00 0.00 0.00 0.00 0.00 0.00 0.00 0.00 0.00 0.00 0.00 0.00 0.00 0.00 0.00 0.00 0.00 0.00
0.01 0.01 0.01 0.00 0.00 0.00 0.00 0.00 0.00 0.00 0.00 0.00 0.00 0.00 0.00 0.00 0.00 0.00 0.00 0.00 0.00 0.00 0.00 0.00 0.00 0.00 0.00 0.00 0.00 0.00 0.00 0.00 0.00 0.00 0.00 0.00 0.00 0.00 0.00 0.00 0.00 0.00 0.00
0.03 0.01 0.00 0.00 0.00 0.00 0.00 0.00 0.00 0.00 0.00 0.00 0.00 0.00 0.00 0.00 0.00 0.00 0.00 0.00 0.00 0.00 0.00 0.00 0.00 0.00 0.00 0.00 0.00 0.00 0.00 0.00 0.00 0.00 0.00 0.00 0.00 0.00 0.00 0.00 0.00 0.00 0.00
MSLP
1005.74 1005.56 1005.37 1005.17 1004.99 1004.87 1004.86 1005.00 1005.31 1005.79 1006.41 1007.13 1007.91 1008.68 1009.42 1010.08 1010.68 1011.21 1011.72 1012.23 1012.77 1013.36 1013.99 1014.67 1015.37 1016.05 1016.68 1017.25 1017.72 1018.10 1018.37 1018.56 1018.68 1018.74 1018.76 1018.77 1018.76 1018.75 1018.75 1018.76 1018.80 1018.85 1018.92
1005.34 1005.22 1005.04 1004.81 1004.57 1004.38 1004.30 1004.39 1004.70 1005.22 1005.92 1006.76 1007.67 1008.58 1009.42 1010.18 1010.83 1011.40 1011.91 1012.42 1012.95 1013.53 1014.17 1014.85 1015.55 1016.23 1016.85 1017.40 1017.85 1018.21 1018.47 1018.65 1018.78 1018.87 1018.93 1018.97 1018.99 1019.00 1018.99 1018.97 1018.95 1018.93 1018.93
1004.87 1004.83 1004.68 1004.44 1004.14 1003.88 1003.73 1003.78 1004.08 1004.64 1005.42 1006.38 1007.42 1008.46 1009.43 1010.28 1011.00 1011.61 1012.14 1012.64 1013.16 1013.73 1014.35 1015.02 1015.70 1016.36 1016.97 1017.49 1017.93 1018.26 1018.52 1018.72 1018.88 1019.01 1019.12 1019.22 1019.28 1019.32 1019.32 1019.27 1019.20 1019.11 1019.02
1004.36 1004.40 1004.29 1004.04 1003.71 1003.39 1003.18 1003.18 1003.47 1004.06 1004.92 1005.97 1007.14 1008.30 1009.39 1010.34 1011.13 1011.78 1012.33 1012.84 1013.35 1013.89 1014.50 1015.14 1015.80 1016.44 1017.03 1017.54 1017.96 1018.30 1018.57 1018.79 1018.99 1019.17 1019.35 1019.51 1019.63 1019.71 1019.72 1019.66 1019.55 1019.39 1019.21
1003.85 1003.96 1003.90 1003.66 1003.30 1002.94 1002.68 1002.65 1002.93 1003.53 1004.44 1005.57 1006.83 1008.10 1009.29 1010.33 1011.19 1011.88 1012.46 1012.97 1013.47 1014.01 1014.59 1015.22 1015.87 1016.50 1017.07 1017.58 1018.00 1018.34 1018.63 1018.88 1019.13 1019.37 1019.60 1019.82 1020.00 1020.12 1020.15 1020.09 1019.93 1019.72 1019.46
1003.38 1003.56 1003.54 1003.32 1002.96 1002.57 1002.28 1002.22 1002.48 1003.09 1004.03 1005.21 1006.53 1007.87 1009.13 1010.24 1011.15 1011.89 1012.50 1013.03 1013.54 1014.07 1014.65 1015.28 1015.92 1016.55 1017.12 1017.63 1018.06 1018.41 1018.72 1019.00 1019.28 1019.57 1019.85 1020.12 1020.34 1020.49 1020.54 1020.48 1020.31 1020.05 1019.73
1003.01 1003.24 1003.26 1003.06 1002.71 1002.32 1002.02 1001.94 1002.19 1002.79 1003.73 1004.92 1006.27 1007.65 1008.95 1010.10 1011.05 1011.83 1012.47 1013.03 1013.56 1014.11 1014.71 1015.34 1015.99 1016.62 1017.21 1017.72 1018.16 1018.52 1018.84 1019.14 1019.43 1019.74 1020.05 1020.34 1020.59 1020.77 1020.83 1020.77 1020.60 1020.32 1019.97
1002.75 1003.01 1003.06 1002.89 1002.57 1002.19 1001.90 1001.83 1002.07 1002.66 1003.58 1004.77 1006.10 1007.47 1008.78 1009.94 1010.93 1011.74 1012.41 1013.01 1013.57 1014.16 1014.78 1015.44 1016.11 1016.75 1017.35 1017.86 1018.30 1018.66 1018.97 1019.26 1019.55 1019.84 1020.15 1020.44 1020.70 1020.88 1020.96 1020.91 1020.75 1020.48 1020.12
1002.62 1002.88 1002.95 1002.81 1002.53 1002.20 1001.94 1001.89 1002.14 1002.73 1003.62 1004.76 1006.06 1007.39 1008.67 1009.83 1010.81 1011.65 1012.36 1013.00 1013.61 1014.24 1014.91 1015.60 1016.29 1016.94 1017.54 1018.05 1018.47 1018.81 1019.09 1019.35 1019.60 1019.86 1020.13 1020.39 1020.63 1020.81 1020.90 1020.88 1020.74 1020.50 1020.16
1002.57 1002.82 1002.90 1002.80 1002.57 1002.31 1002.13 1002.13 1002.40 1002.98 1003.85 1004.94 1006.17 1007.44 1008.67 1009.79 1010.76 1011.61 1012.35 1013.04 1013.70 1014.39 1015.09 1015.81 1016.52 1017.19 1017.77 1018.26 1018.65 1018.95 1019.18 1019.38 1019.57 1019.77 1019.98 1020.21 1020.41 1020.57 1020.67 1020.67 1020.57 1020.37 1020.08
1002.57 1002.78 1002.87 1002.82 1002.68 1002.51 1002.43 1002.51 1002.84 1003.43 1004.27 1005.31 1006.46 1007.65 1008.81 1009.87 1010.82 1011.66 1012.43 1013.16 1013.87 1014.60 1015.35 1016.10 1016.81 1017.47 1018.04 1018.49 1018.83 1019.07 1019.24 1019.37 1019.48 1019.61 1019.76 1019.92 1020.08 1020.22 1020.31 1020.33 1020.27 1020.12 1019.89
1002.56 1002.76 1002.87 1002.88 1002.84 1002.80 1002.83 1003.02 1003.42 1004.04 1004.86 1005.85 1006.92 1008.02 1009.09 1010.09 1011.00 1011.84 1012.61 1013.37 1014.12 1014.89 1015.66 1016.42 1017.14 1017.77 1018.30 1018.71 1019.00 1019.18 1019.28 1019.33 1019.37 1019.43 1019.50 1019.60 1019.72 1019.82 1019.90 1019.93 1019.90 1019.79 1019.60
1002.57 1002.75 1002.89 1002.99 1003.06 1003.16 1003.34 1003.65 1004.14 1004.80 1005.62 1006.55 1007.55 1008.56 1009.54 1010.46 1011.32 1012.13 1012.91 1013.68 1014.45 1015.24 1016.02 1016.77 1017.47 1018.07 1018.56 1018.91 1019.14 1019.26 1019.30 1019.29 1019.27 1019.26 1019.28 1019.32 1019.38 1019.45 1019.50 1019.52 1019.50 1019.41 1019.25
1002.63 1002.82 1003.01 1003.20 1003.40 1003.64 1003.97 1004.41 1004.98 1005.69 1006.50 1007.39 1008.31 1009.23 1010.13 1010.98 1011.78 1012.55 1013.32 1014.08 1014.86 1015.64 1016.41 1017.14 1017.80 1018.36 1018.79 1019.10 1019.27 1019.34 1019.33 1019.28 1019.21 1019.15 1019.12 1019.11 1019.12 1019.14 1019.15 1019.14 1019.09 1018.99 1018.83
1002.83 1003.05 1003.30 1003.57 1003.89 1004.27 1004.73 1005.28 1005.94 1006.68 1007.49 1008.33 1009.19 1010.03 1010.83 1011.61 1012.35 1013.09 1013.82 1014.57 1015.33 1016.09 1016.82 1017.51 1018.12 1018.62 1019.00 1019.25 1019.39 1019.42 1019.38 1019.30 1019.20 1019.11 1019.03 1018.98 1018.94 1018.90 1018.86 1018.79 1018.70 1018.56 1018.36
1003.26 1003.52 1003.82 1004.18 1004.60 1005.08 1005.65 1006.29 1006.99 1007.75 1008.55 1009.35 1010.13 1010.90 1011.62 1012.33 1013.02 1013.70 1014.40 1015.11 1015.84 1016.55 1017.24 1017.87 1018.42 1018.86 1019.18 1019.38 1019.48 1019.48 1019.42 1019.33 1019.21 1019.10 1018.99 1018.90 1018.80 1018.70 1018.59 1018.45 1018.29 1018.08 1017.83
1003.99 1004.28 1004.64 1005.05 1005.54 1006.09 1006.71 1007.39 1008.12 1008.87 1009.63 1010.38 1011.10 1011.79 1012.45 1013.09 1013.73 1014.37 1015.03 1015.69 1016.37 1017.03 1017.65 1018.21 1018.69 1019.06 1019.32 1019.47 1019.53 1019.52 1019.45 1019.35 1019.23 1019.10 1018.96 1018.82 1018.67 1018.50 1018.31 1018.09 1017.84 1017.55 1017.23
1005.02 1005.35 1005.73 1006.18 1006.68 1007.25 1007.89 1008.56 1009.27 1009.99 1010.70 1011.39 1012.05 1012.68 1013.28 1013.87 1014.46 1015.05 1015.66 1016.29 1016.90 1017.49 1018.04 1018.52 1018.92 1019.21 1019.41 1019.52 1019.54 1019.51 1019.43 1019.32 1019.19 1019.05 1018.88 1018.70 1018.49 1018.25 1017.98 1017.67 1017.33 1016.96 1016.57
1006.29 1006.64 1007.03 1007.47 1007.96 1008.51 1009.11 1009.74 1010.40 1011.06 1011.71 1012.33 1012.93 1013.51 1014.06 1014.61 1015.17 1015.73 1016.29 1016.86 1017.42 1017.94 1018.41 1018.80 1019.11 1019.33 1019.46 1019.51 1019.50 1019.44 1019.34 1019.22 1019.08 1018.91 1018.72 1018.49 1018.23 1017.92 1017.57 1017.18 1016.77 1016.33 1015.88
1007.66 1008.02 1008.40 1008.81 1009.26 1009.75 1010.29 1010.86 1011.45 1012.04 1012.62 1013.19 1013.74 1014.27 1014.80 1015.32 1015.84 1016.37 1016.90 1017.42 1017.91 1018.35 1018.74 1019.04 1019.26 1019.40 1019.46 1019.46 1019.40 1019.31 1019.19 1019.05 1018.88 1018.69 1018.46 1018.19 1017.88 1017.51 1017.10 1016.66 1016.19 1015.70 1015.21
1008.97 1009.33 1009.69 1010.06 1010.46 1010.90 1011.37 1011.87 1012.38 1012.91 1013.44 1013.96 1014.47 1014.97 1015.48 1015.98 1016.48 1016.98 1017.47 1017.94 1018.37 1018.73 1019.04 1019.25 1019.39 1019.45 1019.44 1019.38 1019.28 1019.15 1018.99 1018.82 1018.63 1018.40 1018.14 1017.84 1017.48 1017.07 1016.62 1016.14 1015.63 1015.12 1014.62
1010.08 1010.43 1010.78 1011.12 1011.48 1011.87 1012.28 1012.73 1013.19 1013.67 1014.16 1014.65 1015.14 1015.63 1016.12 1016.61 1017.10 1017.57 1018.02 1018.43 1018.80 1019.09 1019.31 1019.45 1019.51 1019.49 1019.42 1019.30 1019.15 1018.98 1018.79 1018.58 1018.35 1018.10 1017.81 1017.47 1017.08 1016.65 1016.18 1015.68 1015.16 1014.65 1014.14
1010.89 1011.26 1011.60 1011.93 1012.28 1012.65 1013.04 1013.46 1013.90 1014.36 1014.83 1015.31 1015.79 1016.27 1016.75 1017.23 1017.70 1018.14 1018.55 1018.91 1019.20 1019.43 1019.57 1019.64 1019.62 1019.54 1019.41 1019.24 1019.04 1018.83 1018.60 1018.36 1018.11 1017.82 1017.51 1017.15 1016.75 1016.31 1015.83 1015.33 1014.82 1014.31 1013.82
1011.41 1011.80 1012.16 1012.52 1012.88 1013.26 1013.66 1014.09 1014.53 1014.99 1015.47 1015.95 1016.44 1016.92 1017.39 1017.85 1018.29 1018.70 1019.05 1019.36 1019.59 1019.74 1019.82 1019.82 1019.74 1019.61 1019.43 1019.22 1018.98 1018.73 1018.48 1018.21 1017.93 1017.62 1017.28 1016.91 1016.51 1016.07 1015.60 1015.11 1014.62 1014.12 1013.64
1011.72 1012.14 1012.54 1012.95 1013.35 1013.78 1014.22 1014.68 1015.15 1015.63 1016.13 1016.62 1017.10 1017.58 1018.04 1018.48 1018.88 1019.23 1019.54 1019.78 1019.95 1020.04 1020.05 1020.00 1019.87 1019.70 1019.48 1019.23 1018.97 1018.70 1018.42 1018.13 1017.82 1017.50 1017.15 1016.78 1016.37 1015.94 1015.49 1015.02 1014.53 1014.05 1013.56
1011.96 1012.42 1012.88 1013.34 1013.81 1014.29 1014.78 1015.28 1015.79 1016.30 1016.81 1017.31 1017.79 1018.25 1018.68 1019.08 1019.43 1019.74 1019.98 1020.16 1020.26 1020.30 1020.26 1020.16 1020.00 1019.79 1019.55 1019.29 1019.01 1018.72 1018.42 1018.11 1017.79 1017.45 1017.10 1016.72 1016.32 1015.89 1015.44 1014.98 1014.51 1014.02 1013.53
Thickness
5693 5698 5702 5705 5706 5706 5706 5705 5703 5702 5698 5693 5688 5683 5678 5675 5673 5672 5669 5665 5659 5653 5648 5642 5636 5632 5626 5622 5618 5614 5610 5607 5606 5606 5605 5605 5605 5602 5599 5596 5593 5590 5586
5685 5690 5694 5696 5698 5699 5700 5700 5698 5697 5695 5691 5686 5680 5671 5666 5663 5662 5660 5657 5651 5646 5641 5635 5630 5625 5619 5614 5610 5607 5602 5598 5595 5593 5592 5591 5591 5590 5591 5586 5583 5579 5575
5679 5682 5685 5687 5689 5691 5692 5694 5693 5691 5689 5685 5678 5668 5660 5654 5650 5649 5647 5645 5642 5637 5633 5628 5622 5617 5612 5607 5602 5598 5594 5589 5585 5582 5579 5576 5574 5572 5576 5576 5573 5568 5563
5673 5674 5676 5678 5681 5684 5685 5686 5686 5685 5683 5679 5672 5665 5659 5652 5646 5642 5638 5635 5632 5628 5624 5619 5614 5609 5603 5598 5593 5589 5585 5581 5575 5572 5569 5565 5561 5556 5555 5558 5559 5557 5552
5664 5665 5667 5669 5672 5675 5676 5678 5677 5677 5676 5673 5668 5661 5654 5648 5639 5633 5628 5624 5621 5618 5615 5610 5605 5600 5594 5589 5584 5579 5575 5571 5566 5562 5558 5555 5550 5546 5539 5539 5540 5540 5537
5651 5653 5655 5657 5659 5662 5664 5666 5667 5667 5667 5664 5660 5654 5648 5640 5632 5626 5620 5615 5611 5609 5605 5601 5596 5591 5585 5580 5575 5570 5565 5561 5556 5551 5547 5542 5537 5533 5528 5524 5524 5523 5523
5634 5635 5636 5638 5642 5645 5648 5651 5655 5656 5656 5653 5650 5645 5639 5634 5629 5622 5616 5610 5604 5600 5596 5592 5587 5581 5576 5571 5565 5559 5554 5550 5545 5540 5535 5531 5526 5521 5516 5510 5506 5506 5508
5618 5617 5619 5620 5624 5630 5633 5637 5641 5643 5643 5641 5638 5634 5629 5624 5619 5615 5610 5606 5600 5594 5590 5584 5578 5572 5566 5560 5555 5549 5544 5539 5534 5530 5525 5519 5514 5510 5504 5497 5490 5487 5489
5602 5601 5602 5604 5608 5613 5619 5623 5627 5629 5630 5628 5625 5621 5617 5614 5610 5605 5601 5597 5592 5586 5581 5575 5569 5562 5556 5550 5544 5539 5534 5529 5524 5519 5514 5509 5504 5498 5492 5485 5477 5469 5467
5584 5584 5584 5587 5592 5598 5604 5609 5613 5616 5616 5614 5612 5608 5605 5603 5600 5597 5592 5588 5583 5578 5572 5565 5559 5552 5546 5540 5534 5529 5524 5519 5514 5509 5503 5497 5492 5486 5479 5472 5465 5457 5451
5567 5566 5568 5570 5575 5581 5586 5592 5597 5600 5600 5600 5598 5594 5592 5591 5589 5586 5582 5578 5573 5568 5563 5556 5549 5543 5536 5530 5525 5519 5513 5508 5503 5498 5493 5487 5481 5474 5466 5459 5451 5444 5436
5553 5551 5553 5554 5557 5563 5569 5576 5581 5584 5585 5585 5583 5581 5579 5579 5578 5575 5571 5567 5563 5558 5552 5546 5539 5532 5526 5520 5515 5509 5503 5497 5492 5486 5481 5475 5469 5461 5453 5445 5438 5430 5422
5540 5538 5538 5539 5542 5547 5553 5559 5564 5567 5570 5570 5568 5567 5567 5568 5567 5564 5560 5557 5552 5547 5541 5535 5528 5521 5515 5510 5504 5498 5492 5487 5481 5475 5469 5463 5455 5447 5439 5431 5423 5415 5408
5529 5526 5525 5526 5529 5533 5538 5543 5547 5552 5556 5555 5554 5554 5556 5557 5557 5554 5550 5546 5541 5536 5529 5523 5516 5510 5504 5499 5493 5487 5481 5475 5469 5464 5458 5451 5443 5435 5426 5418 5409 5400 5392
5520 5516 5514 5515 5518 5522 5525 5529 5533 5538 5542 5543 5542 5544 5546 5547 5546 5543 5539 5534 5529 5523 5517 5511 5505 5499 5493 5487 5480 5474 5469 5462 5457 5451 5445 5438 5431 5423 5415 5407 5397 5387 5378
5512 5509 5507 5507 5509 5512 5515 5519 5522 5527 5532 5533 5534 5536 5538 5537 5535 5532 5527 5522 5517 5511 5505 5499 5493 5488 5483 5476 5469 5463 5456 5449 5443 5438 5432 5425 5418 5410 5403 5394 5384 5373 5362
5510 5505 5502 5501 5503 5505 5509 5512 5515 5520 5523 5524 5526 5528 5529 5528 5525 5521 5516 5511 5505 5499 5493 5488 5483 5477 5470 5464 5458 5451 5444 5437 5430 5425 5418 5413 5405 5397 5387 5380 5370 5357 5343
5508 5503 5499 5497 5499 5502 5506 5509 5510 5513 5515 5517 5518 5520 5520 5519 5514 5510 5504 5499 5493 5488 5483 5477 5472 5466 5460 5453 5446 5439 5431 5424 5418 5412 5405 5398 5390 5382 5374 5367 5357 5343 5329
5504 5499 5496 5496 5498 5500 5503 5505 5506 5507 5509 5510 5511 5512 5511 5509 5504 5499 5493 5487 5482 5477 5472 5466 5460 5454 5448 5441 5434 5428 5419 5411 5405 5398 5391 5383 5376 5369 5362 5353 5341 5330 5317
5502 5498 5496 5495 5496 5497 5499 5501 5501 5502 5502 5503 5503 5503 5501 5498 5492 5487 5482 5477 5472 5466 5461 5455 5449 5443 5436 5430 5423 5416 5407 5400 5393 5386 5377 5369 5361 5354 5344 5333 5323 5315 5306
5501 5498 5497 5495 5494 5495 5496 5496 5496 5495 5495 5495 5495 5493 5490 5486 5481 5476 5471 5466 5461 5455 5450 5444 5438 5432 5426 5419 5411 5404 5395 5388 5381 5372 5364 5354 5346 5336 5326 5316 5307 5299 5295
5501 5499 5498 5496 5494 5494 5494 5492 5490 5489 5489 5488 5486 5482 5479 5476 5471 5466 5461 5455 5450 5444 5438 5432 5425 5419 5413 5406 5399 5392 5384 5376 5367 5358 5348 5339 5330 5320 5311 5302 5294 5290 5285
5503 5501 5499 5497 5494 5492 5490 5489 5485 5484 5483 5480 5476 5472 5469 5465 5460 5455 5450 5444 5439 5432 5426 5419 5411 5405 5399 5392 5386 5378 5369 5360 5351 5342 5332 5323 5314 5305 5296 5289 5285 5281 5275
5503 5500 5497 5494 5489 5486 5484 5483 5481 5479 5477 5472 5467 5463 5459 5454 5449 5444 5439 5433 5426 5419 5412 5406 5398 5391 5384 5377 5371 5362 5353 5345 5336 5325 5317 5308 5299 5291 5285 5281 5275 5271 5268
5500 5497 5493 5489 5484 5481 5478 5476 5475 5473 5469 5463 5457 5453 5448 5443 5438 5432 5427 5421 5414 5407 5400 5393 5386 5378 5370 5364 5358 5349 5341 5332 5324 5316 5305 5295 5286 5280 5275 5272 5269 5266 5264
5494 5490 5487 5483 5479 5476 5473 5470 5468 5465 5461 5454 5447 5442 5438 5432 5427 5421 5415 5410 5404 5399 5392 5384 5376 5368 5360 5353 5345 5336 5327 5319 5311 5301 5290 5281 5275 5271 5269 5267 5265 5263 5260